Radiation Dose at Monitoring Post of Fukushima Daini Nuclear Power Station
Date,Time,MP-1(microSv/h),MP-2(microSv/h),MP-3(microSv/h),MP-4(microSv/h),MP-5(microSv/h),MP-6(microSv/h),MP-7(microSv/h),Wind Direction,Wind Velocity(m/s),Rain
2013/10/30,00:00,0.8,0.5,0.8,0.8,0.7,0.4,0.3,south-southeast,1.6,No
2013/10/30,00:10,0.8,0.5,0.8,0.8,0.7,0.4,0.3,south-southwest,1.7,No
2013/10/30,00:20,0.8,0.5,0.8,0.8,0.7,0.4,0.3,southwest,1.7,No
2013/10/30,00:30,0.8,0.5,0.8,0.8,0.7,0.4,0.3,southwest,2.7,No
2013/10/30,00:40,0.8,0.5,0.8,0.8,0.7,0.4,0.3,southwest,2.8,No
2013/10/30,00:50,0.8,0.5,0.8,0.8,0.7,0.4,0.3,southwest,2.6,Yes
2013/10/30,01:00,0.8,0.5,0.8,0.8,0.7,0.4,0.3,southwest,2.2,No
2013/10/30,01:10,0.8,0.5,0.8,0.8,0.7,0.4,0.3,west-southwest,2.1,No
2013/10/30,01:20,0.8,0.5,0.8,0.8,0.7,0.4,0.3,west-southwest,2.1,No
2013/10/30,01:30,0.8,0.5,0.8,0.8,0.7,0.4,0.3,west-southwest,4.3,No
2013/10/30,01:40,0.8,0.5,0.8,0.8,0.7,0.4,0.3,west,5.5,No
2013/10/30,01:50,0.8,0.5,0.8,0.8,0.7,0.4,0.3,west,3.1,No
2013/10/30,02:00,0.8,0.5,0.8,0.8,0.7,0.4,0.3,west-southwest,1.8,No
2013/10/30,02:10,0.8,0.5,0.8,0.8,0.7,0.4,0.3,southwest,1.6,No
2013/10/30,02:20,0.8,0.5,0.8,0.8,0.7,0.4,0.3,southwest,2.0,No
2013/10/30,02:30,0.8,0.5,0.8,0.8,0.7,0.4,0.3,southwest,2.5,Yes
2013/10/30,02:40,0.8,0.5,0.8,0.8,0.7,0.4,0.3,west-southwest,2.7,Yes
2013/10/30,02:50,0.8,0.5,0.8,0.8,0.7,0.4,0.3,southwest,2.8,Yes
2013/10/30,03:00,0.8,0.5,0.8,0.8,0.7,0.4,0.3,south-southwest,3.1,Yes
2013/10/30,03:10,0.8,0.5,0.8,0.8,0.7,0.4,0.3,south-southwest,3.3,Yes
2013/10/30,03:20,0.8,0.5,0.8,0.8,0.7,0.4,0.3,south-southwest,2.9,No
2013/10/30,03:30,0.8,0.5,0.8,0.8,0.7,0.4,0.3,south-southwest,2.1,No
2013/10/30,03:40,0.8,0.5,0.8,0.8,0.7,0.4,0.3,south-southeast,3.1,No
2013/10/30,03:50,0.8,0.5,0.8,0.8,0.7,0.4,0.3,south-southeast,3.0,Yes
2013/10/30,04:00,0.8,0.5,0.8,0.8,0.7,0.4,0.3,south,2.2,Yes
2013/10/30,04:10,0.8,0.5,0.8,0.8,0.7,0.4,0.3,south,1.9,Yes
2013/10/30,04:20,0.8,0.5,0.8,0.8,0.7,0.4,0.3,south,1.6,Yes
2013/10/30,04:30,0.8,0.5,0.8,0.8,0.7,0.4,0.3,south-southwest,2.2,No
2013/10/30,04:40,0.8,0.5,0.8,0.8,0.7,0.4,0.3,west-southwest,1.9,No
2013/10/30,04:50,0.8,0.5,0.8,0.8,0.7,0.4,0.3,south-southwest,2.9,No
2013/10/30,05:00,0.8,0.5,0.8,0.8,0.7,0.4,0.3,south-southwest,2.5,Yes
2013/10/30,05:10,0.8,0.5,0.8,0.8,0.7,0.4,0.3,south-southwest,2.8,Yes
2013/10/30,05:20,0.8,0.5,0.8,0.8,0.7,0.4,0.3,south,1.7,Yes
2013/10/30,05:30,0.8,0.5,0.8,0.8,0.7,0.4,0.3,south-southwest,2.3,Yes
2013/10/30,05:40,0.8,0.5,0.8,0.8,0.7,0.4,0.3,south,2.2,No
2013/10/30,05:50,0.8,0.5,0.8,0.8,0.7,0.4,0.3,southwest,3.9,Yes
2013/10/30,06:00,0.8,0.5,0.8,0.8,0.7,0.4,0.3,south-southwest,2.8,Yes
2013/10/30,06:10,0.8,0.5,0.8,0.8,0.7,0.4,0.3,southwest,1.7,Yes
2013/10/30,06:20,0.8,0.5,0.8,0.8,0.7,0.4,0.3,southwest,1.9,No
2013/10/30,06:30,0.8,0.5,0.8,0.8,0.7,0.4,0.3,southwest,1.9,No
2013/10/30,06:40,0.8,0.5,0.8,0.8,0.7,0.4,0.3,southwest,2.2,No
2013/10/30,06:50,0.8,0.5,0.8,0.8,0.7,0.4,0.3,west-southwest,2.3,No
2013/10/30,07:00,0.8,0.5,0.8,0.8,0.7,0.4,0.3,southwest,1.9,No
2013/10/30,07:10,0.8,0.5,0.8,0.8,0.7,0.4,0.3,southwest,1.9,No
2013/10/30,07:20,0.8,0.5,0.8,0.8,0.7,0.4,0.3,west-southwest,1.2,No
2013/10/30,07:30,0.8,0.5,0.8,0.8,0.7,0.4,0.3,south-southwest,0.5,No
2013/10/30,07:40,0.8,0.5,0.8,0.8,0.7,0.4,0.3,-,CALM,No
2013/10/30,07:50,0.8,0.5,0.8,0.8,0.7,0.4,0.3,east,0.6,No
2013/10/30,08:00,0.8,0.5,0.8,0.8,0.7,0.4,0.3,east-northeast,1.5,No
2013/10/30,08:10,0.8,0.5,0.8,0.8,0.7,0.4,0.3,east-northeast,1.1,No
2013/10/30,08:20,0.8,0.5,0.8,0.8,0.7,0.4,0.3,east-northeast,1.3,Yes
2013/10/30,08:30,0.8,0.5,0.8,0.8,0.7,0.4,0.3,east-northeast,1.7,No
2013/10/30,08:40,0.8,0.5,0.8,0.8,0.7,0.4,0.3,northeast,2.3,No
2013/10/30,08:50,0.8,0.5,0.8,0.8,0.7,0.4,0.3,north-northeast,2.1,No
2013/10/30,09:00,0.8,0.5,0.8,0.8,0.7,0.4,0.3,north-northeast,1.6,No
2013/10/30,09:10,0.8,0.5,0.8,0.8,0.7,0.4,0.3,northeast,0.6,No
2013/10/30,09:20,0.8,0.5,0.8,0.8,0.7,0.4,0.3,northeast,1.1,No
2013/10/30,09:30,0.8,0.5,0.8,0.8,0.7,0.4,0.3,east-northeast,1.0,No
2013/10/30,09:40,0.8,0.5,0.8,0.8,0.7,0.4,0.3,northeast,1.3,No
2013/10/30,09:50,0.8,0.5,0.8,0.8,0.7,0.4,0.3,northeast,1.5,No
2013/10/30,10:00,0.8,0.5,0.8,0.8,0.7,0.4,0.3,northeast,1.1,No
2013/10/30,10:10,0.8,0.5,0.8,0.8,0.7,0.4,0.3,northeast,1.4,No
2013/10/30,10:20,0.8,0.5,0.8,0.8,0.7,0.4,0.3,northeast,1.1,No
2013/10/30,10:30,0.8,0.5,0.8,0.8,0.7,0.4,0.3,northeast,1.6,No
2013/10/30,10:40,0.8,0.5,0.8,0.8,0.7,0.4,0.3,northeast,2.6,No
2013/10/30,10:50,0.8,0.5,0.8,0.8,0.7,0.4,0.3,east-northeast,2.7,No
2013/10/30,11:00,0.8,0.6,0.8,0.8,0.7,0.4,0.3,northeast,3.3,No
2013/10/30,11:10,0.8,0.6,0.8,0.8,0.7,0.4,0.3,northeast,3.0,No
2013/10/30,11:20,0.8,0.6,0.8,0.8,0.7,0.4,0.3,northeast,2.7,No
2013/10/30,11:30,0.8,0.6,0.8,0.8,0.7,0.4,0.3,northeast,2.8,No
2013/10/30,11:40,0.8,0.6,0.8,0.8,0.7,0.4,0.3,northeast,3.2,No
2013/10/30,11:50,0.8,0.6,0.8,0.8,0.7,0.4,0.3,northeast,3.3,No
2013/10/30,12:00,0.8,0.6,0.8,0.8,0.7,0.4,0.3,east-northeast,3.6,No
2013/10/30,12:10,0.8,0.6,0.8,0.8,0.7,0.4,0.3,east-northeast,2.5,No
2013/10/30,12:20,0.8,0.6,0.8,0.8,0.7,0.4,0.3,northeast,2.9,No
2013/10/30,12:30,0.8,0.6,0.8,0.8,0.7,0.4,0.3,east-northeast,2.1,No
2013/10/30,12:40,0.8,0.6,0.8,0.8,0.7,0.4,0.3,east,2.0,No
2013/10/30,12:50,0.8,0.6,0.8,0.8,0.7,0.4,0.3,east,1.8,No
2013/10/30,13:00,0.8,0.6,0.8,0.8,0.7,0.4,0.3,east,1.7,No
2013/10/30,13:10,0.8,0.5,0.8,0.8,0.7,0.4,0.3,east,1.6,No
2013/10/30,13:20,0.8,0.5,0.8,0.8,0.7,0.4,0.3,east,1.9,No
2013/10/30,13:30,0.8,0.5,0.8,0.8,0.7,0.4,0.3,east-southeast,1.9,No
2013/10/30,13:40,0.8,0.6,0.8,0.8,0.7,0.4,0.3,southeast,1.6,No
2013/10/30,13:50,0.8,0.5,0.8,0.8,0.7,0.4,0.3,east-southeast,1.4,No
2013/10/30,14:00,0.8,0.5,0.8,0.8,0.7,0.4,0.3,east-northeast,1.4,No
2013/10/30,14:10,0.8,0.5,0.8,0.8,0.7,0.4,0.3,south-southeast,0.8,No
2013/10/30,14:20,0.8,0.5,0.8,0.8,0.7,0.4,0.3,south-southwest,0.7,No
2013/10/30,14:30,0.8,0.5,0.8,0.8,0.7,0.4,0.3,-,CALM,No
2013/10/30,14:40,0.8,0.5,0.8,0.8,0.7,0.4,0.3,south-southwest,0.8,No
2013/10/30,14:50,0.8,0.6,0.8,0.8,0.7,0.4,0.3,-,CALM,No
2013/10/30,15:00,0.8,0.5,0.8,0.8,0.7,0.4,0.3,northwest,0.9,No
2013/10/30,15:10,0.8,0.5,0.8,0.8,0.7,0.4,0.3,north,3.3,No
2013/10/30,15:20,0.8,0.5,0.8,0.8,0.7,0.4,0.3,north-northeast,4.2,No
2013/10/30,15:30,0.8,0.5,0.8,0.8,0.7,0.4,0.3,north,3.1,No
2013/10/30,15:40,0.8,0.5,0.8,0.8,0.7,0.4,0.3,north,1.1,No
2013/10/30,15:50,0.8,0.5,0.8,0.8,0.7,0.4,0.3,southwest,0.9,No
2013/10/30,16:00,0.8,0.5,0.8,0.8,0.7,0.4,0.3,south,1.0,No
2013/10/30,16:10,0.8,0.5,0.8,0.8,0.7,0.4,0.3,south-southeast,0.5,No
2013/10/30,16:20,0.8,0.5,0.8,0.8,0.7,0.4,0.3,south,2.0,No
2013/10/30,16:30,0.8,0.5,0.8,0.8,0.7,0.4,0.3,southeast,3.0,No
2013/10/30,16:40,0.8,0.5,0.8,0.8,0.7,0.4,0.3,west-southwest,1.6,No
2013/10/30,16:50,0.8,0.5,0.8,0.8,0.7,0.4,0.3,south-southwest,1.1,No
2013/10/30,17:00,0.8,0.5,0.8,0.8,0.7,0.4,0.3,west-northwest,1.1,No
2013/10/30,17:10,0.8,0.5,0.8,0.8,0.7,0.4,0.3,northwest,1.4,No
2013/10/30,17:20,0.8,0.5,0.8,0.8,0.7,0.4,0.3,northwest,1.5,No
2013/10/30,17:30,0.8,0.5,0.8,0.8,0.7,0.4,0.3,northwest,3.6,No
2013/10/30,17:40,0.8,0.5,0.8,0.8,0.7,0.4,0.3,northwest,2.2,No
2013/10/30,17:50,0.8,0.5,0.8,0.8,0.7,0.4,0.3,west,4.6,No
2013/10/30,18:00,0.8,0.5,0.8,0.8,0.7,0.4,0.3,northwest,4.4,No
2013/10/30,18:10,0.8,0.5,0.8,0.8,0.7,0.4,0.3,northwest,3.9,No
2013/10/30,18:20,0.8,0.5,0.8,0.8,0.7,0.4,0.3,west-northwest,4.7,Yes
2013/10/30,18:30,0.8,0.5,0.8,0.8,0.7,0.4,0.3,northwest,4.1,Yes
2013/10/30,18:40,0.8,0.5,0.8,0.8,0.7,0.4,0.3,northwest,5.1,Yes
2013/10/30,18:50,0.8,0.5,0.8,0.8,0.7,0.4,0.3,west-northwest,7.9,No
2013/10/30,19:00,0.8,0.5,0.8,0.8,0.7,0.4,0.3,northwest,6.2,No
2013/10/30,19:10,0.8,0.5,0.8,0.8,0.7,0.4,0.3,north-northwest,5.7,No
2013/10/30,19:20,0.8,0.5,0.8,0.8,0.7,0.4,0.3,north-northwest,4.3,No
2013/10/30,19:30,0.8,0.5,0.8,0.8,0.7,0.4,0.3,north,2.8,No
2013/10/30,19:40,0.8,0.5,0.8,0.8,0.7,0.4,0.3,north,3.6,No
2013/10/30,19:50,0.8,0.5,0.8,0.8,0.7,0.4,0.3,north,6.2,No
2013/10/30,20:00,0.8,0.5,0.8,0.8,0.7,0.4,0.3,north,4.8,No
2013/10/30,20:10,0.8,0.5,0.8,0.8,0.7,0.4,0.3,north,4.5,No
2013/10/30,20:20,0.8,0.5,0.8,0.8,0.7,0.4,0.3,north,4.8,No
2013/10/30,20:30,0.8,0.5,0.8,0.8,0.7,0.4,0.3,north,5.1,No
2013/10/30,20:40,0.8,0.5,0.8,0.8,0.7,0.4,0.3,north,5.3,No
2013/10/30,20:50,0.8,0.5,0.8,0.8,0.7,0.4,0.3,north,4.2,No
2013/10/30,21:00,0.8,0.5,0.8,0.8,0.7,0.4,0.3,north,3.3,No
2013/10/30,21:10,0.8,0.5,0.8,0.8,0.7,0.4,0.3,north,3.5,No
2013/10/30,21:20,0.8,0.5,0.8,0.8,0.7,0.4,0.3,north-northwest,3.1,No
2013/10/30,21:30,0.8,0.5,0.8,0.8,0.7,0.4,0.3,north-northwest,3.1,No
2013/10/30,21:40,0.8,0.5,0.8,0.8,0.7,0.4,0.3,north,3.2,No
2013/10/30,21:50,0.8,0.5,0.8,0.8,0.7,0.4,0.3,north,3.0,No
2013/10/30,22:00,0.8,0.5,0.8,0.8,0.7,0.4,0.3,north-northwest,3.4,No
2013/10/30,22:10,0.8,0.5,0.8,0.8,0.7,0.4,0.3,north,3.5,No
2013/10/30,22:20,0.8,0.5,0.8,0.8,0.7,0.4,0.3,north,3.2,No
2013/10/30,22:30,0.8,0.5,0.8,0.8,0.7,0.4,0.3,north-northwest,2.0,No
2013/10/30,22:40,0.8,0.5,0.8,0.8,0.7,0.4,0.3,north-northwest,2.0,No
2013/10/30,22:50,0.8,0.5,0.8,0.8,0.7,0.4,0.3,north,2.1,No
2013/10/30,23:00,0.8,0.5,0.8,0.8,0.7,0.4,0.3,north-northwest,2.0,No
2013/10/30,23:10,0.8,0.5,0.8,0.8,0.7,0.4,0.3,northwest,2.0,No
2013/10/30,23:20,0.8,0.5,0.8,0.8,0.7,0.4,0.3,north-northwest,1.8,No
2013/10/30,23:30,0.8,0.5,0.8,0.8,0.7,0.4,0.3,west-northwest,1.2,No
2013/10/30,23:40,0.8,0.5,0.8,0.8,0.7,0.4,0.3,northwest,1.9,No
2013/10/30,23:50,0.8,0.5,0.8,0.8,0.7,0.4,0.3,west-northwest,2.5,No
